Regional Weather Roundup
Issued by NWS

Home | Current Version | Previous Version | Graphics & Text | Print | Product List | Glossary On
Versions: 1 2 3 4 5 6 7 8 9 10 11 12 13 14 15 16 17 18 19 20 21 22 23 24 25 26 27 28 29 30 31 32 33 34 35 36 37 38 39 40 41 42 43 44 45 46 47 48 49 50
749
ASUS43 KMKX 250821
RWRWI

WISCONSIN REGIONAL WEATHER ROUNDUP
NATIONAL WEATHER SERVICE MILWAUKEE/SULLIVAN WI
200 AM CST SAT FEB 25 2017

NOTE: "FAIR" INDICATES FEW OR NO CLOUDS BELOW 12,000 FEET WITH NO
SIGNIFICANT WEATHER AND/OR OBSTRUCTIONS TO VISIBILITY.

WIZ001-002-006>008-014>016-023>028-250900-
NORTHWEST WISCONSIN

CITY           SKY/WX    TMP DP  RH WIND       PRES   REMARKS
SUPERIOR ARPT  CLEAR     14   5  66 N15G21    29.86F WCI  -1
ASHLAND        CLOUDY    17   7  64 NW18G26   29.77F WCI   1
HAYWARD        CLOUDY    15   4  61 NW12G18   29.76F WCI   2
SIREN          PTCLDY    15   5  64 NW9G18    29.85S WCI   4
CUMBERLAND     PTCLDY    16   5  62 N18G25    29.79S WCI  -1
RICE LAKE      PTCLDY    16   5  61 NW8G20    29.81S WCI   5
CHETEK         PTCLDY    15   5  66 NW6       29.79S WCI   6
LADYSMITH      CLOUDY    17   8  66 NW16      29.75S WCI   2
EAU CLAIRE     MOCLDY    17   7  64 NW10      29.78F WCI   5
MENOMONIE      CLEAR     17   6  61 NW10      29.81S WCI   5
NEW RICHMOND   MOCLDY    17   6  62 N21G29    29.85S WCI   0
OSCEOLA        CLEAR     17   7  63 NW14G21   29.90S WCI   3
$$

WIZ003>005-009-010-017-018-250900-
NORTH CENTRAL WISCONSIN

CITY           SKY/WX    TMP DP  RH WIND       PRES   REMARKS
MANITOWISH WTR LGT SNOW  14  13  95 N9        29.63F WCI   2
ARBOR VITAE    LGT SNOW  17  13  84 N8          N/A  WCI   6
WOODRUFF       LGT SNOW  17  13  84 N8          N/A  WCI   6
RHINELANDER    LGT SNOW  16  11  80 NW10      29.60F WCI   4
EAGLE RIVER    LGT SNOW  15  10  81 NW10G17   29.59F WCI   2
LAND O LAKES   LGT SNOW  15  11  84 N8        29.61F WCI   5
PHILLIPS       LGT SNOW  14  10  85 NW7G16    29.67F WCI   4
TOMAHAWK       LGT SNOW  15  11  84 NW8       29.63F WCI   4
MEDFORD        LGT SNOW  15  10  80 NW17G23   29.65S WCI  -2
MERRILL        NOT AVBL
$$

WIZ029-030-035-036-043>047-250900-
CENTRAL WISCONSIN

CITY           SKY/WX    TMP DP  RH WIND       PRES   REMARKS
WAUSAU         CLOUDY    18  11  74 NW14G20   29.62S WCI   4
MOSINEE        LGT SNOW  18  14  86 NW14G20   29.64S WCI   4
MARSHFIELD     LGT SNOW  16  11  80 NW18      29.66S WCI   0
STEVENS POINT  LGT SNOW  17  13  86 NW12G17   29.64S WCI   4
WAUPACA        LGT SNOW  22  17  82 NW8       29.63S WCI  13
WAUTOMA        LGT SNOW  19  16  88 NW12      29.65S FOG     WCI   7
WISC RAPIDS    LGT SNOW  18  15  88 NW14G20   29.68R FOG     WCI   4
CAMP DOUGLAS   LGT SNOW  18  14  84 NW10      29.71R WCI   6
$$

WIZ011>013-019>022-031-037>040-048>050-250900-
NORTHEAST WISCONSIN

CITY           SKY/WX    TMP DP  RH WIND       PRES   REMARKS
ANTIGO         FLURRIES  16  11  82 NW14G21   29.58S WCI   1
SHAWANO        FLURRIES  22  17  81 CALM      29.59F
OCONTO         CLOUDY    21  16  79 NW8       29.56S WCI  12
STURGEON BAY   MIX PCPN  21  19  93 MISG      29.53S
GREEN BAY      LGT SNOW  22  19  89 NW14      29.57F FOG     WCI   9
MANITOWOC      LGT SNOW  23  20  88 NW15      29.55F FOG     WCI  10
APPLETON       LGT SNOW  21  16  79 NW8       29.57F WCI  12
CLINTONVILLE   LGT SNOW  21  16  79 NW8       29.60S WCI  12
OSHKOSH        LGT SNOW  20  17  88 NW12      29.59F FOG     WCI   8
$$

WIZ032>034-041-042-053>061-250900-
SOUTHWEST WISCONSIN

CITY           SKY/WX    TMP DP  RH WIND       PRES   REMARKS
LA CROSSE      LGT SNOW  22  16  78 NW17      29.79F WCI   8
SPARTA         FLURRIES  19  15  84 NW14G22   29.77S WCI   5
VIROQUA        CLOUDY    17  14  86 NW14      29.73S WCI   3
BOSCOBEL       LGT SNOW  21  15  78 NW14      29.78R WCI   8
PRAIRIE DU CHI LGT SNOW  20  15  78 NW9       29.80R WCI  10
PLATTEVILLE    CLOUDY    20  19  96 NW7       29.73R WCI  11
$$

WIZ056-057-062-063-064-067-068-250900-
SOUTH CENTRAL WISCONSIN

CITY           SKY/WX    TMP DP  RH WIND       PRES   REMARKS
REEDSBURG      LGT SNOW  17  15  93 NW8       29.69S WCI   7
BARABOO/DELLS  LGT SNOW  18  15  89 NW8       29.67S VSB 1   WCI   7
LONE ROCK      LGT SNOW  20  15  81 NW12      29.73S WCI   8
MINERAL POINT  LGT SNOW  21  19  93 CALM      29.70R
MADISON        LGT SNOW  20  18  92 NW13G20   29.65F FOG     WCI   7
MIDDLETON      CLOUDY    22  19  90 NW7       29.67S WCI  13
WATERTOWN      LGT SNOW  21  20  96 NW10      29.62S WCI  10
MONROE         LGT SNOW  21  19  93 NW10G20   29.66R WCI  10
JANESVILLE     LGT SNOW  25  23  93 NW9G16    29.65R WCI  15
$$

WIZ051-052-058>065-066-070>072-250900-
SOUTHEAST WISCONSIN

CITY           SKY/WX    TMP DP  RH WIND       PRES   REMARKS
MILWAUKEE      FLURRIES  26  20  77 NW16G22   29.58S WCI  14
WAUKESHA       CLOUDY    21  19  93 NW12      29.60S WCI   9
MILWAUKEE/TIMM LGT SNOW  25  19  80 NW16      29.60R WCI  12
RACINE         LGT SNOW  27  23  85 NW13      29.60S FOG     WCI  16
KENOSHA        LGT SNOW  28  23  81 W12       29.59S WCI  18
FOND DU LAC    LGT SNOW  21  16  81 NW13      29.60S WCI   9
SHEBOYGAN      LGT SNOW  22  19  89 NW10      29.56F FOG     WCI  11
WEST BEND      LGT SNOW  23  21  93 NW3       29.58S
JUNEAU         LGT SNOW  20  17  90 W3        29.62S
$$

LSZ147-162-250900-
LAKE SUPERIOR

STATION/POSITION TIME  TEMP    WIND        PRES    WAVE
                       AIR SEA DIR/SP/G            HT/PER
                 (UTC) (F)     (DEG/KT/KT) (MB)    (FT/S)
DEVILS ISLAND    0800   17     330/ 23/ 27 1009.6F
PORT WING        0740   19     330/ 19/ 24 1010.2F
SAXON HARBOR     0808   21     320/ 19/ 25 1007.1F
$$

LMZ867-665-643>646-250900-
LAKE MICHIGAN

STATION/POSITION TIME  TEMP    WIND        PRES    WAVE
                       AIR SEA DIR/SP/G            HT/PER
                 (UTC) (F)     (DEG/KT/KT) (MB)    (FT/S)
CHAMBERS ISLAND  0640   24     310/  3/  4 1000.3S
NORTHPORT PIER   0740   26     330/  3/  4  999.0F
SISTER BAY       0735   24        CALM       N/A
KEWAUNEE LAKESHO 0800   23     320/  9/ 16  999.8
SHEBOYGAN LAKESH 0800   23     320/  6/  6 1001.6F
PORT WASHINGTON  0740   25     300/  6/ 14 1002.7S
MILWAUKEE LAKESH 0800   26     300/ 10/ 12   N/A
KENOSHA   LAKESH 0800   28     310/ 12/ 18 1002.4
$$

TC  - TEMPERATURE IN CELSIUS
VSB - VISIBILITY IN STATUTE MILES
WCI - WIND CHILL INDEX
HX  - HEAT INDEX





USA.gov is the U.S. government's official web portal to all federal, state and local government web resources and services.